Tracking 30009 objects as of 7-Dec-2024
HD Live streaming from Space Station
objects crossing your sky now

STARLINK-31642

Track STARLINK-31642 now!
10-day predictions
STARLINK-31642 is classified as:


NORAD ID: 59726
Int'l Code: 2024-088U
Perigee: 452.2 km
Apogee: 457.0 km
Inclination: 53.2 °
Period: 93.5 minutes
Semi major axis: 6825 km
RCS: Unknown
Launch date: May 10, 2024
Source: United States (US)
Launch site: AIR FORCE WESTERN TEST RANGE (AFWTR)
Your satellite tracking list
Your tracking list is empty




NASA's NSSDC Master Catalog

Two Line Element Set (TLE):
1 59726U 24088U   24342.06862992 -.00003696  00000-0 -82597-4 0  9999
2 59726  53.1577 105.8467 0003526  37.0998 323.0250 15.39545799 33538
Source of the keplerian elements: AFSPC